Regional Weather Roundup
Issued by NWS Jackson, KY

Home | Current Version | Previous Version | Graphics & Text | Print | Product List | Glossary On
Versions: 1 2 3 4 5 6 7 8 9 10 11 12 13 14 15 16 17 18 19 20 21 22 23 24 25 26 27 28
000
ASUS43 KJKL 060310
RWRJKL

EAST KENTUCKY HOURLY WEATHER ROUNDUP
NATIONAL WEATHER SERVICE JACKSON KY
1100 PM EDT THU MAY 05 2016

NOTE: "FAIR" INDICATES FEW OR NO CLOUDS BELOW 12,000 FEET WITH
NO SIGNIFICANT WEATHER AND/OR OBSTRUCTIONS TO VISIBILITY.

* THESE REPORTS ARE NOT UNDER NWS QUALITY CONTROL AND MAY NOT
  REPORT WEATHER SUCH AS PRECIPITATION AND FOG.

KYZ079-080-083-085-087-088-110-112-115-119-120-060400
...EASTERN KENTUCKY...

CITY           SKY/WX    TMP DP  RH WIND       PRES   REMARKS
JACKSON        PTCLDY    48  43  82 NW7       29.87R
LONDON         CLOUDY    49  43  80 NW7       29.90R
SOMERSET*      PTCLDY    46  43  87 NW3       29.94S
MONTICELLO*    MOCLDY    49  45  86 NW5       29.96R
WILLIAMSBURG*  CLOUDY    48  46  93 W3        29.91S
MIDDLESBORO*   MOCLDY    50  43  75 NW8G21    29.88S
HARLAN APT*    CLOUDY    48  41  76 SW5       29.87S
HAZARD APT*    CLOUDY    50  45  81 W5        29.87R
BLACK MTN*       N/A     37  39 100 N7          N/A  WCI  32
PIKE CO APT*   CLOUDY    48  46  92 W9        29.83S
BIG SANDY APT* CLOUDY    49  46  88 W6        29.83S
MOREHEAD APT*  CLEAR     48  45  87 CALM      29.90R
$$

KYZ035-036-041-042-044-050-067-078-099-060400
...CENTRAL KENTUCKY...

CITY           SKY/WX    TMP DP  RH WIND       PRES   REMARKS
MT STERLING*   CLEAR     46  45  93 W6        29.91R
FLEMING/MASON* CLEAR     47  45  95 W10       29.89R
DANVILLE*      MOCLDY    48  43  81 NW6       29.93S
RICHMOND*      CLEAR     46  43  87 W5        29.91R
LEXINGTON      CLOUDY    48  45  89 SW3       29.91R
FRANKFORT      MOCLDY    50  45  83 CALM      29.90R
LOUISVILLE     PTCLDY    54  43  66 NW7       29.93R
LEBANON*         N/A     48  45  87 S6        29.93S
BOWLING GREEN  PTCLDY    52  45  77 SW3       29.97R
$$

KYZ091>093-OHZ055-061-077-WVZ005-015-034-035-042-060400
...SOUTHERN OHIO/WEST VIRGINIA...

CITY           SKY/WX    TMP DP  RH WIND       PRES   REMARKS
COVINGTON      CLOUDY    54  46  74 NW5       29.89R
COLUMBUS       MOCLDY    53  42  66 N7        29.85R
DAYTON         PTCLDY    50  42  74 NW6       29.90R
WILMINGTON     CLEAR     51  38  60 NW5       29.88R
HUNTINGTON       N/A     51  46  83 NW8       29.82R
CHARLESTON     DRIZZLE   51  48  89 W3        29.79S
PINEVILLE*     LGT RAIN  47  44  90 MISG      29.84R
BECKLEY        LGT RAIN  44  43  96 W5        29.77R
$$

VAZ002-007-008-TNZ017-027-036-066-071-060400
...SOUTHWEST VIRGINIA/EAST TENNESSEE...

CITY           SKY/WX    TMP DP  RH WIND       PRES   REMARKS
WISE*          CLOUDY    45  43  93 NW12      29.83R
BRISTOL        CLOUDY    47  43  86 W7        29.83S
MORRISTOWN*    CLOUDY    50  41  71 W5        29.87S
SEVIERVILLE*   CLOUDY    48  39  71 SW3       29.89S
KNOXVILLE      MOCLDY    49  39  68 CALM      29.90R
OAK RIDGE      CLEAR     49  39  68 CALM      29.91F
CROSSVILLE     MOCLDY    45  39  79 NW6       29.93R
NASHVILLE      PTCLDY    53  43  68 NW6       29.98R
$$

...KEY TO REMARKS...
VSB - VISIBILITY IN MILES
WCI - WIND CHILL INDEX
HX  - HEAT INDEX

$$




USA.gov is the U.S. government's official web portal to all federal, state and local government web resources and services.